Madison, WI

8:15 PM CST on November 15, 2019 (GMT -0600)
Dane County Regional-Truax

Weather History for KMSN - June, 2019

Change the Weather History Date:

Thursday, June 13, 2019

  Actual Average Record
Temperature  
Mean Temperature 59 °F 66 °F  
Max Temperature 69 °F 77 °F 95 °F (1956)
Min Temperature 49 °F 56 °F 36 °F (1965)
Degree Days  
Heating Degree Days 6 2  
Month to date heating degree days 30 42  
Since 1 June heating degree days 30 42  
Since 1 July heating degree days 7489 7315  
Cooling Degree Days 0 4  
Month to date cooling degree days 25 33  
Year to date cooling degree days 45 63  
Since 1 June cooling degree days 25 33  
Growing Degree Days 8 (Base 50)    
Moisture  
Dew Point 42 °F    
Average Humidity 61    
Maximum Humidity 89    
Minimum Humidity 33    
Precipitation  
Precipitation 0.00 in 0.15 in 2.24 in (2000)
Month to date precipitation 1.45 1.95  
Year to date precipitation 17.26 13.78  
Snow  
Snow 0.00 in 0.00 in 0.00 in (2018)
Month to date snowfall 0.0 0.0  
Since 1 June snowfall 0.0 0.0  
Since 1 July snowfall 57.2 50.9  
Snow Depth 0.00 in    
Sea Level Pressure  
Sea Level Pressure 29.94 in    
Wind  
Wind Speed 9 mph (NNW)    
Max Wind Speed 22 mph    
Max Gust Speed 29 mph    
Visibility 10 miles    
Events      
T = Trace of Precipitation, MM = Missing Value Source: NWS Daily Summary

Daily Weather History Graph

Daily Weather History Graph

Search for Another Location

Airport or City:

Astronomy

Jun. 13, 2019 Rise Set
Actual Time 5:17 AM CDT 8:37 PM CDT
Civil Twilight 4:41 AM CDT 9:13 PM CDT
Nautical Twilight 3:55 AM CDT 9:59 PM CDT
Astronomical Twilight 2:59 AM CDT 10:56 PM CDT
Moon 4:46 PM CDT (6/13) 3:10 AM CDT (6/13)
Length of Visible Light 16h 31m
Length of Day
15h 20m
Waxing Gibbous, 85% of the Moon is Illuminated
Jun 13
Waxing Gibbous
Jun 17
Full
Jun 25
Last Quarter
Jul 2
New
Jul 9
First Quarter

Hourly Weather History & Observations

Time (CDT) Temp. Dew Point Humidity Pressure Visibility Wind Dir Wind Speed Gust Speed Precip Events Conditions
12:10 AM 53.1 °F 50.0 °F 89% 29.87 in 10.0 mi North 11.5 mph - N/A   Overcast
12:53 AM 53.1 °F 48.9 °F 86% 29.88 in 10.0 mi North 9.2 mph - N/A   Overcast
1:01 AM 53.1 °F 48.9 °F 86% 29.87 in 10.0 mi North 9.2 mph - N/A   Overcast
1:53 AM 52.0 °F 48.0 °F 86% 29.87 in 10.0 mi NNW 9.2 mph - N/A   Partly Cloudy
2:53 AM 52.0 °F 46.0 °F 80% 29.87 in 10.0 mi NNW 10.4 mph - N/A   Clear
3:53 AM 51.1 °F 44.1 °F 77% 29.88 in 10.0 mi NNW 9.2 mph - N/A   Clear
4:53 AM 50.0 °F 42.1 °F 74% 29.89 in 10.0 mi NNW 9.2 mph 18.4 mph N/A   Clear
5:53 AM 48.9 °F 41.0 °F 74% 29.90 in 10.0 mi NNW 9.2 mph - N/A   Mostly Cloudy
6:53 AM 51.1 °F 42.1 °F 71% 29.91 in 10.0 mi NNW 12.7 mph 19.6 mph N/A   Mostly Cloudy
7:53 AM 52.0 °F 42.1 °F 69% 29.93 in 10.0 mi NNW 10.4 mph 20.7 mph N/A   Scattered Clouds
8:53 AM 55.9 °F 42.1 °F 60% 29.94 in 10.0 mi North 15.0 mph 28.8 mph N/A   Scattered Clouds
9:53 AM 59.0 °F 42.1 °F 53% 29.95 in 10.0 mi NNW 12.7 mph 26.5 mph N/A   Partly Cloudy
10:53 AM 61.0 °F 39.0 °F 44% 29.96 in 10.0 mi North 16.1 mph 25.3 mph N/A   Scattered Clouds
11:53 AM 62.1 °F 37.0 °F 39% 29.96 in 10.0 mi NNW 15.0 mph 25.3 mph N/A   Scattered Clouds
12:53 PM 64.9 °F 37.9 °F 37% 29.97 in 10.0 mi North 15.0 mph 23.0 mph N/A   Partly Cloudy
1:53 PM 66.9 °F 39.0 °F 36% 29.97 in 10.0 mi North 12.7 mph 21.9 mph N/A   Partly Cloudy
2:53 PM 66.9 °F 39.0 °F 36% 29.97 in 10.0 mi NW 8.1 mph 21.9 mph N/A   Scattered Clouds
3:53 PM 66.9 °F 39.0 °F 36% 29.97 in 10.0 mi NW 10.4 mph 21.9 mph N/A   Mostly Cloudy
4:53 PM 69.1 °F 39.9 °F 35% 29.97 in 10.0 mi NNW 11.5 mph 19.6 mph N/A   Scattered Clouds
5:53 PM 69.1 °F 41.0 °F 36% 29.97 in 10.0 mi Variable 6.9 mph - N/A   Partly Cloudy
6:53 PM 66.9 °F 39.0 °F 36% 29.98 in 10.0 mi WNW 5.8 mph - N/A   Partly Cloudy
7:53 PM 66.0 °F 39.9 °F 38% 29.98 in 10.0 mi WNW 5.8 mph - N/A   Partly Cloudy
8:53 PM 62.1 °F 41.0 °F 46% 29.98 in 10.0 mi West 3.5 mph - N/A   Clear
9:53 PM 60.1 °F 42.1 °F 51% 29.99 in 10.0 mi Calm Calm - N/A   Clear
10:53 PM 59.0 °F 41.0 °F 51% 30.00 in 10.0 mi Variable 3.5 mph - N/A   Clear
11:53 PM 57.0 °F 41.0 °F 55% 29.99 in 10.0 mi Calm Calm - N/A   Clear